Flag for Canada Weather past 2 weeks in St. Albert, Alberta, Canada

Now
69 °F

Mild.


Feels Like: 69 °F
Forecast: 37 / 78 °F
Wind: 18 mph from South

Location: Edmonton Municipal

Current Time: Apr 28, 2015 at 12:22:33 PM

Latest Report: Apr 28, 2015 at 12:00 PM


Visibility: N/A

Pressure: 29.88 "Hg

Humidity: 23%

Dew point: 29 °F

Location of St. AlbertLocation

Historic Weather in St. Albert — Graph

°F

St. Albert temperature yesterday

Maximum temperature yesterday: 67 °F (at 4:00 PM)
Minimum temperature yesterday: 35 °F (at 6:00 AM)
Average temperature yesterday: 51 °F

Past Weeks' High & Low Weather Summary

 TemperatureHumidityPressure
High72 °F (Apr 22, 3:00 PM)100% (Apr 24, 6:00 AM)30.34 "Hg (Apr 24, 6:00 AM)
Low27 °F (Apr 26, 6:00 AM)15% (Apr 13, 4:00 PM)29.56 "Hg (Apr 22, 7:00 PM)
Average46 °F46%29.99 "Hg
* Reported Apr 13 11:00 AM — Apr 28 11:00 AM, St. Albert, Weather by CustomWeather, © 2015

Note: Actual official high and low records may vary slightly from our data, if they occured in-between our weather recording intervals... More about our weather records

Advertising

St. Albert weather history for previous 24 hours

 ConditionsComfort  
Time TempWeatherWind HumidityBarometerVisibility
11:00 AM
Tue, Apr 28
67 °FMild.12 mph27%29.90 "HgN/A
10:00 AM60 °FRefreshingly cool.9 mph34%29.93 "HgN/A
9:00 AM57 °FRefreshingly cool.6 mph40%29.96 "HgN/A
8:00 AM50 °FCool.1 mph55%29.99 "HgN/A
7:00 AM42 °FQuite cool.1 mph70%30.01 "HgN/A
6:00 AM42 °FQuite cool.3 mph66%30.02 "HgN/A
5:00 AM40 °FChilly.3 mph67%30.03 "HgN/A
4:00 AM44 °FQuite cool.3 mph65%30.04 "HgN/A
3:00 AM46 °FCool.3 mph54%30.04 "HgN/A
2:00 AM46 °FCool.2 mph50%30.06 "HgN/A
1:00 AM48 °FCool.6 mph43%30.06 "HgN/A
12:00 AM52 °FCool.5 mph36%30.06 "HgN/A
11:00 PM
Mon, Apr 27
55 °FCool.2 mph35%30.06 "HgN/A
10:00 PM55 °FRefreshingly cool.6 mph34%30.08 "HgN/A
9:00 PM58 °FRefreshingly cool.7 mph30%30.08 "HgN/A
8:00 PM62 °FRefreshingly cool.12 mph27%30.07 "HgN/A
7:00 PM65 °FMild.12 mph22%30.07 "HgN/A
6:00 PM65 °FMild.12 mph22%30.07 "HgN/A
5:00 PM67 °FMild.10 mph19%30.07 "HgN/A
4:00 PM67 °FMild.12 mph17%30.08 "HgN/A
3:00 PM65 °FMild.8 mph19%30.09 "HgN/A
2:00 PM64 °FMild.7 mph19%30.11 "HgN/A
1:00 PM63 °FMild.7 mph20%30.11 "HgN/A
12:00 PM60 °FRefreshingly cool.5 mph27%30.14 "HgN/A
Weather by CustomWeather, © 2015

See weather overviewHow to use our weather pages